| time (UTC) | temp F | wind direction | speed MPH | gust MPH | rain 1hr in | rain 24hr in | rain mn in | humidity % | barometer mb |
| 20260904210716 | 65 | 0.0 | 0.0 | 0.00 | 0.01 | 0.00 | 59 | 1011.5 | |
| 20260904205748 | 65 | 0.0 | 0.0 | 0.00 | 0.01 | 0.00 | 60 | 1011.6 | |
| 20260904204638 | 64 | 0.0 | 0.0 | 0.00 | 0.01 | 0.00 | 61 | 1011.6 | |
| 20260904203501 | 64 | 0.0 | 0.0 | 0.00 | 0.01 | 0.00 | 63 | 1011.6 | |
| 20260904202400 | 63 | 0.0 | 0.0 | 0.00 | 0.01 | 0.00 | 65 | 1011.7 | |
| 20260904201325 | 62 | 0.0 | 0.0 | 0.00 | 0.01 | 0.00 | 66 | 1011.8 | |
| 20260904200150 | 62 | 0.0 | 0.0 | 0.00 | 0.01 | 0.00 | 68 | 1011.9 | |
| 20260904195137 | 62 | 0.0 | 0.0 | 0.00 | 0.01 | 0.00 | 67 | 1011.8 | |
| 20260904194053 | 62 | 0.0 | 0.0 | 0.00 | 0.01 | 0.00 | 68 | 1012.0 | |
| 20260904192934 | 61 | 0.0 | 0.0 | 0.00 | 0.01 | 0.00 | 70 | 1012.1 | |
| 20260904191805 | 60 | 0.0 | 0.0 | 0.00 | 0.01 | 0.00 | 71 | 1012.1 | |
| 20260904190641 | 60 | 0.0 | 0.0 | 0.00 | 0.01 | 0.00 | 72 | 1012.3 | |
| 20260904185704 | 59 | 0.0 | 0.0 | 0.00 | 0.01 | 0.00 | 72 | 1012.2 | |
| 20260904184737 | 58 | 0.0 | 0.0 | 0.00 | 0.01 | 0.00 | 75 | 1012.2 | |
| 20260904183743 | 58 | 0.0 | 0.0 | 0.00 | 0.01 | 0.00 | 75 | 1012.2 | |
| 20260904182801 | 58 | 0.0 | 0.0 | 0.00 | 0.01 | 0.00 | 75 | 1012.3 | |
| 20260904181624 | 57 | 0.0 | 0.0 | 0.00 | 0.01 | 0.00 | 77 | 1012.1 | |
| 20260904180552 | 56 | 0.0 | 0.0 | 0.00 | 0.01 | 0.00 | 80 | 1012.3 | |
| 20260904175626 | 55 | 0.0 | 0.0 | 0.00 | 0.01 | 0.00 | 82 | 1012.5 | |
| 20260904174524 | 55 | 0.0 | 0.0 | 0.00 | 0.01 | 0.00 | 83 | 1012.5 | |
| 20260904173410 | 54 | 0.0 | 0.0 | 0.00 | 0.01 | 0.00 | 87 | 1012.5 | |
| 20260904172357 | 53 | 0.0 | 0.0 | 0.00 | 0.01 | 0.00 | 86 | 1012.5 | |
| 20260904171411 | 53 | 0.0 | 0.0 | 0.00 | 0.01 | 0.00 | 87 | 1012.5 | |
| 20260904170233 | 53 | 0.0 | 0.0 | 0.00 | 0.01 | 0.00 | 88 | 1012.6 | |
| 20260904165132 | 53 | 0.0 | 0.0 | 0.00 | 0.01 | 0.00 | 89 | 1012.6 | |
| 20260904163952 | 53 | 0.0 | 0.0 | 0.00 | 0.01 | 0.00 | 88 | 1012.5 | |
| 20260904162841 | 53 | 0.0 | 0.0 | 0.00 | 0.01 | 0.00 | 90 | 1012.6 | |
| 20260904161854 | 53 | 0.0 | 0.0 | 0.00 | 0.01 | 0.00 | 91 | 1012.6 | |
| 20260904160845 | 52 | 0.0 | 0.0 | 0.00 | 0.01 | 0.00 | 91 | 1012.5 | |
| 20260904155850 | 52 | 0.0 | 0.0 | 0.00 | 0.01 | 0.00 | 90 | 1012.7 | |
| 20260904154753 | 52 | 0.0 | 0.0 | 0.00 | 0.01 | 0.00 | 89 | 1012.5 | |
| 20260904153731 | 52 | 0.0 | 0.0 | 0.00 | 0.01 | 0.00 | 90 | 1012.3 | |
| 20260904152645 | 52 | 0.0 | 0.0 | 0.00 | 0.01 | 0.00 | 91 | 1012.3 | |
| 20260904151533 | 51 | 0.0 | 0.0 | 0.00 | 0.01 | 0.00 | 92 | 1012.2 | |
| 20260904150434 | 51 | 0.0 | 0.0 | 0.00 | 0.01 | 0.00 | 92 | 1012.1 | |
| 20260904145509 | 51 | 0.0 | 0.0 | 0.00 | 0.01 | 0.00 | 92 | 1011.9 | |
| 20260904144446 | 51 | 0.0 | 0.0 | 0.00 | 0.01 | 0.00 | 92 | 1011.7 | |
| 20260904143522 | 51 | 0.0 | 0.0 | 0.00 | 0.02 | 0.00 | 93 | 1011.6 | |
| 20260904142506 | 50 | 0.0 | 0.0 | 0.00 | 0.02 | 0.00 | 93 | 1011.6 | |
| 20260904141444 | 50 | 0.0 | 0.0 | 0.00 | 0.02 | 0.00 | 93 | 1011.6 | |
| 20260904140451 | 50 | 0.0 | 0.0 | 0.00 | 0.02 | 0.00 | 93 | 1011.7 | |
| 20260904135430 | 50 | 0.0 | 0.0 | 0.00 | 0.02 | 0.00 | 93 | 1011.5 | |
| 20260904134338 | 49 | 0.0 | 0.0 | 0.00 | 0.03 | 0.00 | 93 | 1011.4 | |
| 20260904133343 | 49 | 0.0 | 0.0 | 0.00 | 0.04 | 0.00 | 92 | 1011.2 | |
| 20260904132352 | 49 | 0.0 | 0.0 | 0.00 | 0.04 | 0.00 | 92 | 1011.2 | |
| 20260904131328 | 49 | 0.0 | 0.0 | 0.00 | 0.04 | 0.00 | 92 | 1011.1 | |
| 20260904130251 | 49 | 0.0 | 0.0 | 0.00 | 0.04 | 0.00 | 92 | 1011.1 | |
| 20260904125310 | 49 | 0.0 | 0.0 | 0.00 | 0.05 | 0.00 | 92 | 1011.0 | |
| 20260904124146 | 49 | 0.0 | 0.0 | 0.00 | 0.05 | 0.00 | 92 | 1010.8 | |
| 20260904123051 | 49 | 0.0 | 0.0 | 0.00 | 0.05 | 0.00 | 91 | 1010.7 | |
| 20260904122107 | 49 | 0.0 | 0.0 | 0.00 | 0.05 | 0.00 | 92 | 1010.7 | |
| 20260904121030 | 49 | 0.0 | 0.0 | 0.00 | 0.05 | 0.00 | 92 | 1010.7 | |
| 20260904120055 | 49 | 0.0 | 0.0 | 0.00 | 0.05 | 0.00 | 92 | 1010.6 | |
| 20260904115116 | 49 | 0.0 | 0.0 | 0.00 | 0.05 | 0.00 | 92 | 1010.4 | |
| 20260904113942 | 50 | 0.0 | 0.0 | 0.00 | 0.05 | 0.00 | 91 | 1010.5 | |
| 20260904112933 | 50 | 0.0 | 0.0 | 0.00 | 0.05 | 0.00 | 91 | 1010.4 | |
| 20260904111840 | 50 | 0.0 | 0.0 | 0.00 | 0.05 | 0.00 | 91 | 1010.2 | |
| 20260904110834 | 50 | 0.0 | 0.0 | 0.00 | 0.07 | 0.00 | 91 | 1010.2 | |
| 20260904105752 | 50 | 0.0 | 0.0 | 0.00 | 0.07 | 0.00 | 91 | 1010.2 | |
| 20260904104646 | 51 | 0.0 | 0.0 | 0.00 | 0.07 | 0.00 | 91 | 1010.1 | |
| 20260904103714 | 51 | 0.0 | 0.0 | 0.00 | 0.07 | 0.00 | 91 | 1010.1 | |
| 20260904102646 | 51 | 0.0 | 0.0 | 0.00 | 0.07 | 0.00 | 91 | 1010.1 | |
| 20260904101546 | 51 | 0.0 | 0.0 | 0.00 | 0.07 | 0.00 | 91 | 1009.9 | |
| 20260904100601 | 51 | 0.0 | 0.0 | 0.00 | 0.07 | 0.00 | 92 | 1009.9 | |
| 20260904095452 | 51 | 0.0 | 0.0 | 0.00 | 0.07 | 0.00 | 92 | 1009.7 | |
| 20260904094505 | 52 | 0.0 | 0.0 | 0.00 | 0.07 | 0.00 | 92 | 1009.8 | |
| 20260904093335 | 52 | 0.0 | 0.0 | 0.00 | 0.07 | 0.00 | 91 | 1009.8 | |
| 20260904092424 | 52 | 0.0 | 0.0 | 0.00 | 0.07 | 0.00 | 91 | 1009.9 | |
| 20260904092235 | 52 | 0.0 | 0.0 | 0.00 | 0.07 | 0.00 | 92 | 1009.9 | |
| 20260904091100 | 52 | 0.0 | 0.0 | 0.00 | 0.07 | 0.00 | 92 | 1009.9 | |
| 20260904090116 | 52 | 0.0 | 0.0 | 0.00 | 0.07 | 0.00 | 92 | 1009.9 | |
| 20260904085944 | 52 | 0.0 | 0.0 | 0.00 | 0.07 | 0.00 | 92 | 1009.9 | |
| 20260904085028 | 52 | 0.0 | 0.0 | 0.00 | 0.07 | 0.00 | 92 | 1009.9 | |
| 20260904083949 | 52 | 0.0 | 0.0 | 0.00 | 0.07 | 0.00 | 93 | 1009.8 | |
| 20260904082910 | 52 | 0.0 | 0.0 | 0.00 | 0.07 | 0.00 | 92 | 1009.9 | |
| 20260904081837 | 52 | 0.0 | 0.0 | 0.00 | 0.07 | 0.00 | 92 | 1009.9 | |
| 20260904080908 | 52 | 0.0 | 0.0 | 0.00 | 0.07 | 0.00 | 91 | 1009.9 | |
| 20260904075833 | 52 | 0.0 | 0.0 | 0.00 | 0.07 | 0.00 | 91 | 1009.6 | |
| 20260904074725 | 52 | 0.0 | 0.0 | 0.00 | 0.07 | 0.00 | 91 | 1009.6 | |
| 20260904073701 | 53 | 0.0 | 0.0 | 0.00 | 0.07 | 0.00 | 91 | 1009.7 | |
| 20260904072527 | 53 | 0.0 | 0.0 | 0.00 | 0.07 | 0.00 | 92 | 1009.9 | |
| 20260904071501 | 53 | 0.0 | 0.0 | 0.00 | 0.07 | 0.00 | 92 | 1009.9 | |
| 20260904070420 | 53 | 0.0 | 0.0 | 0.00 | 0.07 | 0.00 | 91 | 1010.0 | |
| 20260904065406 | 53 | 0.0 | 0.0 | 0.00 | 0.07 | 0.00 | 91 | 1009.8 | |
| 20260904064358 | 53 | 0.0 | 0.0 | 0.00 | 0.07 | 0.00 | 91 | 1009.8 | |
| 20260904063332 | 53 | 0.0 | 0.0 | 0.00 | 0.07 | 0.00 | 91 | 1009.9 | |
| 20260904062251 | 53 | 0.0 | 0.0 | 0.00 | 0.07 | 0.00 | 90 | 1009.9 | |
| 20260904061210 | 53 | 0.0 | 0.0 | 0.00 | 0.07 | 0.00 | 90 | 1009.7 | |
| 20260904060229 | 53 | 0.0 | 0.0 | 0.00 | 0.07 | 0.00 | 90 | 1009.7 | |
| 20260904055221 | 53 | 0.0 | 0.0 | 0.00 | 0.06 | 0.00 | 90 | 1009.7 | |
| 20260904054130 | 54 | 0.0 | 0.0 | 0.00 | 0.06 | 0.00 | 89 | 1009.8 | |
| 20260904053053 | 54 | 0.0 | 0.0 | 0.00 | 0.06 | 0.00 | 88 | 1009.6 | |
| 20260904052759 | 54 | 0.0 | 0.0 | 0.00 | 0.06 | 0.00 | 88 | 1009.6 | |
| 20260904052118 | 54 | 0.0 | 0.0 | 0.00 | 0.06 | 0.00 | 88 | 1009.6 | |
| 20260904051133 | 54 | 0.0 | 0.0 | 0.00 | 0.06 | 0.00 | 88 | 1009.7 | |
| 20260904050050 | 54 | 0.0 | 0.0 | 0.00 | 0.06 | 0.00 | 86 | 1009.6 | |
| 20260904044950 | 54 | 0.0 | 0.0 | 0.00 | 0.06 | 0.00 | 87 | 1009.7 | |
| 20260904043929 | 55 | 0.0 | 0.0 | 0.00 | 0.05 | 0.00 | 85 | 1009.8 | |
| 20260904042856 | 55 | 0.0 | 0.0 | 0.00 | 0.05 | 0.00 | 84 | 1009.8 | |
| 20260904041800 | 55 | 0.0 | 0.0 | 0.00 | 0.05 | 0.00 | 84 | 1009.8 | |
| 20260904040742 | 55 | 0.0 | 0.0 | 0.00 | 0.05 | 0.00 | 84 | 1009.6 | |
| 20260904035610 | 55 | 0.0 | 0.0 | 0.00 | 0.05 | 0.00 | 84 | 1009.6 | |
| 20260904034514 | 55 | 0.0 | 0.0 | 0.00 | 0.05 | 0.00 | 84 | 1009.5 | |
| 20260904033413 | 55 | 0.0 | 0.0 | 0.00 | 0.05 | 0.00 | 82 | 1009.4 | |
| 20260904032422 | 56 | 0.0 | 0.0 | 0.00 | 0.05 | 0.00 | 82 | 1009.2 | |
| 20260904031426 | 56 | 0.0 | 0.0 | 0.00 | 0.05 | 0.00 | 81 | 1009.0 | |
| 20260904030456 | 56 | 0.0 | 0.0 | 0.00 | 0.05 | 0.00 | 80 | 1009.0 | |
| 20260904025358 | 57 | 0.0 | 0.0 | 0.00 | 0.05 | 0.00 | 79 | 1009.0 | |
| 20260904024259 | 57 | 0.0 | 0.0 | 0.00 | 0.05 | 0.00 | 79 | 1008.9 | |
| 20260904023305 | 57 | 0.0 | 0.0 | 0.00 | 0.05 | 0.00 | 76 | 1008.9 | |
| 20260904022238 | 58 | 0.0 | 0.0 | 0.00 | 0.05 | 0.00 | 75 | 1008.9 | |
| 20260904021102 | 58 | 0.0 | 0.0 | 0.00 | 0.05 | 0.00 | 74 | 1008.6 | |
| 20260904020122 | 59 | 0.0 | 0.0 | 0.00 | 0.05 | 0.00 | 74 | 1008.7 | |
| 20260904015001 | 59 | 0.0 | 0.0 | 0.00 | 0.05 | 0.00 | 75 | 1008.6 | |
| 20260904013827 | 60 | 0.0 | 0.0 | 0.00 | 0.05 | 0.00 | 73 | 1008.4 | |
| 20260904012748 | 60 | 0.0 | 0.0 | 0.00 | 0.05 | 0.00 | 73 | 1008.5 | |
| 20260904011743 | 61 | 0.0 | 0.0 | 0.00 | 0.05 | 0.00 | 74 | 1008.4 | |
| 20260904010614 | 61 | 0.0 | 0.0 | 0.00 | 0.07 | 0.00 | 73 | 1008.3 | |
| 20260904005626 | 62 | 0.0 | 0.0 | 0.00 | 0.16 | 0.00 | 73 | 1008.4 | |
| 20260904004550 | 63 | 0.0 | 0.0 | 0.00 | 0.16 | 0.00 | 71 | 1008.3 | |
| 20260904003622 | 64 | 0.0 | 0.0 | 0.00 | 0.16 | 0.00 | 67 | 1008.3 | |
| 20260904002630 | 64 | 0.0 | 0.0 | 0.00 | 0.16 | 0.00 | 65 | 1008.2 | |
| 20260904001528 | 64 | 0.0 | 0.0 | 0.00 | 0.16 | 0.00 | 63 | 1008.2 | |
| 20260904000412 | 63 | 0.0 | 0.0 | 0.00 | 0.16 | 0.00 | 64 | 1008.2 | |
| 20260903235346 | 62 | 0.0 | 0.0 | 0.00 | 0.16 | 0.00 | 66 | 1008.3 | |
| 20260903234205 | 62 | 0.0 | 0.0 | 0.00 | 0.16 | 0.00 | 67 | 1008.3 | |
| 20260903233135 | 62 | 0.0 | 0.0 | 0.00 | 0.16 | 0.00 | 66 | 1008.3 | |
| 20260903232159 | 62 | 0.0 | 0.0 | 0.00 | 0.17 | 0.00 | 69 | 1008.3 | |
| 20260903231055 | 61 | 0.0 | 0.0 | 0.00 | 0.19 | 0.00 | 70 | 1008.4 | |
| 20260903225952 | 61 | 0.0 | 0.0 | 0.00 | 0.20 | 0.00 | 72 | 1008.4 | |
| 20260903224954 | 61 | 0.0 | 0.0 | 0.00 | 0.21 | 0.00 | 71 | 1008.4 | |
| 20260903223912 | 61 | 0.0 | 0.0 | 0.00 | 0.22 | 0.00 | 72 | 1008.5 | |
| 20260903222932 | 61 | 0.0 | 0.0 | 0.00 | 0.23 | 0.00 | 70 | 1008.5 | |
| 20260903221817 | 62 | 0.0 | 0.0 | 0.00 | 0.23 | 0.00 | 69 | 1008.6 | |
| 20260903220842 | 62 | 0.0 | 0.0 | 0.00 | 0.24 | 0.00 | 66 | 1008.6 | |
| 20260903215825 | 63 | 0.0 | 0.0 | 0.00 | 0.25 | 0.00 | 64 | 1008.5 | |
| 20260903214856 | 64 | 0.0 | 0.0 | 0.00 | 0.25 | 0.00 | 62 | 1008.3 | |
| 20260903213845 | 64 | 0.0 | 0.0 | 0.00 | 0.26 | 0.00 | 61 | 1008.2 | |
| 20260903212811 | 64 | 0.0 | 0.0 | 0.00 | 0.26 | 0.00 | 60 | 1008.1 | |
| 20260903211822 | 64 | 0.0 | 0.0 | 0.00 | 0.27 | 0.00 | 60 | 1008.1 |